Total_Precipitation_Accumulation
0.00 0.00 0.00 0.00 0.00 0.00 0.03 0.11 0.23 0.18 0.15 0.18 0.19 0.19 0.24 0.24 0.21 0.17 0.16 0.14 0.15 0.18 0.21 0.25 0.25 0.22 0.19 0.17 0.17 0.23 0.27 0.34 0.44 0.38 0.32 0.28 0.25 0.19 0.16 0.20 0.25 0.36 0.43 0.48
0.00 0.01 0.00 0.00 0.01 0.01 0.02 0.03 0.08 0.12 0.17 0.18 0.18 0.19 0.20 0.19 0.17 0.16 0.16 0.13 0.12 0.14 0.17 0.19 0.16 0.11 0.08 0.08 0.11 0.17 0.23 0.28 0.35 0.34 0.27 0.20 0.16 0.10 0.09 0.14 0.19 0.26 0.29 0.33
0.00 0.01 0.02 0.05 0.03 0.01 0.01 0.02 0.04 0.13 0.21 0.19 0.20 0.19 0.18 0.16 0.14 0.12 0.10 0.08 0.07 0.06 0.06 0.05 0.05 0.04 0.05 0.05 0.06 0.14 0.23 0.30 0.35 0.39 0.38 0.27 0.14 0.10 0.11 0.15 0.20 0.23 0.22 0.21
0.00 0.01 0.09 0.08 0.01 0.01 0.02 0.02 0.03 0.06 0.09 0.10 0.09 0.07 0.06 0.06 0.05 0.03 0.03 0.03 0.03 0.02 0.02 0.02 0.02 0.04 0.07 0.06 0.07 0.12 0.21 0.28 0.30 0.34 0.34 0.29 0.22 0.19 0.20 0.23 0.29 0.29 0.24 0.21
0.01 0.02 0.06 0.02 0.02 0.02 0.04 0.04 0.03 0.03 0.04 0.04 0.04 0.04 0.06 0.03 0.02 0.01 0.01 0.01 0.01 0.01 0.01 0.02 0.02 0.05 0.10 0.11 0.14 0.18 0.26 0.34 0.34 0.34 0.32 0.26 0.22 0.24 0.25 0.28 0.31 0.32 0.27 0.24
0.01 0.02 0.05 0.04 0.04 0.06 0.04 0.11 0.08 0.05 0.04 0.03 0.02 0.08 0.10 0.04 0.01 0.01 0.01 0.01 0.02 0.02 0.02 0.04 0.06 0.09 0.14 0.20 0.24 0.30 0.38 0.43 0.40 0.41 0.41 0.36 0.35 0.35 0.32 0.33 0.31 0.29 0.28 0.31
0.01 0.03 0.04 0.02 0.04 0.04 0.08 0.15 0.04 0.02 0.01 0.01 0.02 0.05 0.05 0.02 0.01 0.01 0.01 0.02 0.03 0.04 0.04 0.06 0.08 0.12 0.20 0.25 0.27 0.30 0.32 0.39 0.44 0.48 0.52 0.55 0.57 0.51 0.44 0.40 0.38 0.36 0.34 0.35
0.03 0.07 0.09 0.02 0.01 0.01 0.04 0.02 0.01 0.01 0.01 0.02 0.02 0.01 0.01 0.01 0.01 0.01 0.02 0.03 0.04 0.06 0.05 0.07 0.09 0.14 0.20 0.23 0.25 0.28 0.31 0.39 0.46 0.49 0.48 0.55 0.73 0.72 0.69 0.63 0.52 0.47 0.45 0.41
0.02 0.04 0.02 0.00 0.00 0.01 0.01 0.01 0.02 0.02 0.01 0.02 0.02 0.02 0.02 0.02 0.02 0.02 0.02 0.03 0.05 0.09 0.10 0.12 0.15 0.24 0.32 0.29 0.29 0.33 0.38 0.44 0.48 0.48 0.52 0.61 0.69 0.73 0.75 0.70 0.61 0.55 0.55 0.53
0.03 0.01 0.00 0.01 0.01 0.01 0.01 0.01 0.01 0.01 0.01 0.02 0.03 0.03 0.03 0.03 0.03 0.04 0.04 0.06 0.09 0.13 0.19 0.26 0.30 0.35 0.42 0.37 0.37 0.40 0.41 0.45 0.49 0.52 0.53 0.57 0.68 0.71 0.69 0.64 0.63 0.63 0.61 0.57
0.03 0.02 0.01 0.01 0.02 0.01 0.00 0.01 0.01 0.01 0.02 0.02 0.03 0.04 0.04 0.04 0.05 0.05 0.05 0.07 0.12 0.19 0.27 0.34 0.41 0.47 0.49 0.49 0.51 0.52 0.48 0.47 0.50 0.52 0.54 0.60 0.67 0.74 0.73 0.67 0.61 0.65 0.64 0.59
0.04 0.04 0.05 0.05 0.03 0.01 0.01 0.01 0.01 0.02 0.02 0.03 0.04 0.05 0.04 0.05 0.05 0.05 0.06 0.07 0.11 0.18 0.26 0.34 0.42 0.49 0.51 0.58 0.66 0.70 0.69 0.61 0.60 0.62 0.64 0.69 0.71 0.64 0.56 0.54 0.45 0.43 0.46 0.49
0.05 0.04 0.04 0.03 0.02 0.01 0.02 0.01 0.02 0.02 0.03 0.03 0.04 0.04 0.05 0.05 0.05 0.05 0.07 0.09 0.14 0.20 0.25 0.30 0.36 0.46 0.53 0.63 0.69 0.72 0.73 0.73 0.69 0.69 0.71 0.72 0.73 0.69 0.60 0.50 0.44 0.39 0.36 0.38
0.02 0.02 0.01 0.01 0.01 0.01 0.01 0.01 0.02 0.03 0.04 0.04 0.05 0.06 0.06 0.07 0.07 0.08 0.10 0.12 0.15 0.20 0.26 0.30 0.37 0.42 0.49 0.59 0.69 0.71 0.70 0.69 0.67 0.67 0.69 0.68 0.67 0.66 0.68 0.62 0.53 0.45 0.36 0.34
0.01 0.01 0.02 0.01 0.01 0.02 0.03 0.04 0.04 0.05 0.05 0.04 0.04 0.05 0.06 0.07 0.08 0.10 0.11 0.14 0.18 0.21 0.24 0.30 0.41 0.46 0.52 0.59 0.65 0.69 0.71 0.71 0.69 0.62 0.63 0.68 0.67 0.63 0.63 0.65 0.59 0.49 0.41 0.37
0.02 0.02 0.03 0.03 0.04 0.05 0.06 0.06 0.06 0.06 0.06 0.06 0.06 0.07 0.08 0.08 0.09 0.10 0.12 0.17 0.24 0.28 0.31 0.37 0.40 0.47 0.60 0.67 0.70 0.71 0.74 0.73 0.75 0.71 0.63 0.64 0.67 0.67 0.64 0.64 0.61 0.50 0.40 0.35
0.05 0.06 0.07 0.07 0.08 0.08 0.08 0.09 0.09 0.09 0.09 0.09 0.08 0.09 0.10 0.11 0.13 0.14 0.16 0.20 0.26 0.29 0.34 0.42 0.44 0.48 0.59 0.72 0.80 0.80 0.74 0.69 0.70 0.72 0.66 0.58 0.59 0.62 0.60 0.59 0.51 0.43 0.35 0.29
0.09 0.11 0.13 0.13 0.14 0.13 0.12 0.12 0.13 0.14 0.15 0.14 0.13 0.13 0.16 0.20 0.23 0.23 0.24 0.27 0.30 0.29 0.30 0.35 0.43 0.51 0.59 0.68 0.77 0.79 0.77 0.73 0.68 0.67 0.65 0.60 0.56 0.54 0.54 0.51 0.43 0.36 0.32 0.27
0.09 0.12 0.14 0.16 0.18 0.19 0.21 0.23 0.24 0.24 0.23 0.23 0.24 0.25 0.26 0.28 0.30 0.32 0.33 0.38 0.45 0.47 0.42 0.41 0.45 0.48 0.55 0.65 0.75 0.76 0.78 0.79 0.73 0.60 0.58 0.59 0.52 0.50 0.44 0.42 0.38 0.33 0.27 0.23
0.14 0.18 0.22 0.25 0.28 0.32 0.35 0.35 0.36 0.36 0.35 0.35 0.35 0.35 0.36 0.35 0.38 0.42 0.45 0.48 0.54 0.61 0.59 0.54 0.47 0.44 0.51 0.65 0.75 0.73 0.69 0.72 0.68 0.57 0.55 0.57 0.50 0.44 0.35 0.33 0.30 0.27 0.22 0.17
0.20 0.24 0.28 0.31 0.33 0.36 0.39 0.41 0.42 0.41 0.38 0.37 0.39 0.40 0.41 0.39 0.40 0.49 0.62 0.64 0.57 0.61 0.60 0.55 0.48 0.46 0.49 0.63 0.70 0.71 0.66 0.63 0.63 0.55 0.50 0.48 0.44 0.36 0.29 0.28 0.25 0.20 0.17 0.13
0.19 0.22 0.26 0.27 0.28 0.28 0.27 0.29 0.30 0.30 0.29 0.29 0.32 0.36 0.43 0.45 0.43 0.48 0.56 0.65 0.67 0.66 0.60 0.56 0.52 0.48 0.47 0.56 0.63 0.69 0.70 0.63 0.60 0.51 0.43 0.38 0.36 0.31 0.25 0.24 0.21 0.13 0.11 0.10
0.13 0.14 0.15 0.15 0.16 0.15 0.12 0.13 0.18 0.23 0.25 0.27 0.31 0.40 0.53 0.55 0.55 0.63 0.62 0.56 0.63 0.61 0.57 0.53 0.50 0.47 0.43 0.46 0.55 0.61 0.66 0.63 0.59 0.50 0.40 0.34 0.28 0.23 0.18 0.17 0.14 0.10 0.08 0.07
0.03 0.04 0.05 0.06 0.07 0.10 0.11 0.13 0.16 0.19 0.22 0.26 0.27 0.38 0.58 0.70 0.65 0.59 0.57 0.55 0.52 0.47 0.45 0.44 0.37 0.35 0.35 0.37 0.44 0.50 0.56 0.58 0.58 0.49 0.40 0.32 0.23 0.19 0.16 0.14 0.11 0.09 0.07 0.05
0.02 0.02 0.03 0.06 0.12 0.19 0.24 0.25 0.22 0.22 0.27 0.30 0.29 0.37 0.52 0.66 0.74 0.66 0.53 0.47 0.43 0.38 0.38 0.34 0.30 0.32 0.34 0.35 0.41 0.48 0.54 0.54 0.55 0.49 0.40 0.29 0.21 0.18 0.16 0.13 0.11 0.09 0.06 0.04
0.03 0.04 0.07 0.11 0.19 0.29 0.36 0.37 0.38 0.39 0.46 0.51 0.49 0.51 0.58 0.58 0.61 0.59 0.49 0.40 0.36 0.37 0.37 0.35 0.30 0.28 0.30 0.35 0.39 0.47 0.53 0.53 0.49 0.42 0.32 0.25 0.20 0.17 0.15 0.12 0.10 0.08 0.05 0.04
0.06 0.09 0.14 0.18 0.24 0.34 0.40 0.47 0.54 0.58 0.66 0.76 0.80 0.73 0.70 0.67 0.62 0.53 0.44 0.36 0.33 0.33 0.34 0.33 0.29 0.26 0.28 0.32 0.37 0.43 0.46 0.46 0.41 0.35 0.31 0.27 0.24 0.22 0.18 0.13 0.10 0.07 0.04 0.04